Theta_e
306 309 319 322 323 323 324 324 325 325 326 326 327 327 328 328 329 330 331 332 334 337 341 343 344 343 341 341 341 343 343 342 342 343 343 343 342 340 339 338 338 338 340
307 310 317 320 321 322 322 323 324 324 324 325 326 326 326 326 326 327 327 328 329 332 336 339 341 343 343 343 343 342 343 342 342 343 342 342 342 340 339 338 338 337 339
306 307 311 318 320 321 321 322 323 322 323 324 325 325 325 325 325 325 325 325 326 328 330 334 337 340 340 341 342 342 342 342 341 342 340 338 338 340 339 338 338 338 340
305 306 309 317 319 320 321 321 321 322 323 323 323 323 324 324 324 324 324 324 324 325 326 328 330 335 338 338 339 341 341 343 340 338 338 337 336 338 338 339 339 339 341
304 305 309 316 318 319 319 320 320 320 321 321 321 322 322 323 322 322 323 322 323 324 324 325 326 327 330 333 336 337 340 341 340 337 336 336 336 335 339 340 339 340 340
303 304 307 314 316 317 317 318 318 318 319 319 319 320 320 320 320 320 321 321 321 322 323 324 324 324 324 327 332 335 337 338 338 336 337 334 332 335 338 340 339 340 338
302 303 304 311 313 314 315 316 317 317 318 318 318 318 318 317 317 318 318 318 319 320 321 321 322 322 322 322 326 331 334 335 335 336 335 333 331 335 336 339 339 339 338
301 302 303 305 309 311 313 314 315 316 316 316 316 316 316 315 316 316 316 316 318 319 318 318 318 318 319 320 321 325 330 331 331 332 334 330 330 334 336 336 337 337 338
301 302 302 303 304 306 308 311 312 314 314 314 314 314 313 312 313 314 314 316 317 317 317 317 316 317 318 319 320 320 323 326 330 331 328 327 328 333 335 335 336 337 337
301 301 301 302 303 304 305 308 310 311 311 311 310 310 308 308 309 311 311 313 317 317 316 317 316 316 317 317 318 319 322 323 329 329 329 327 329 331 332 333 334 335 336
300 300 301 301 302 303 306 306 306 307 307 307 306 306 305 306 306 309 309 313 315 315 316 316 317 317 316 314 316 317 322 329 330 331 326 327 328 328 331 332 333 333 334
297 298 300 300 301 303 305 305 305 305 304 304 303 303 303 305 305 306 308 311 312 312 314 315 316 315 313 315 315 318 322 328 331 330 328 328 329 329 330 330 330 332 331
297 298 299 300 301 302 303 304 304 303 302 302 301 301 302 302 303 304 307 307 307 309 310 311 311 311 312 313 315 320 323 326 326 327 325 325 328 326 328 328 327 330 332
296 297 298 299 300 302 302 301 301 300 299 298 298 298 298 299 300 302 303 303 304 306 307 309 313 313 314 316 318 324 323 323 324 323 320 320 323 324 325 326 328 329 331
296 296 298 299 300 301 300 300 299 297 297 296 296 296 296 296 297 299 299 300 301 303 304 306 309 309 310 313 321 323 324 323 322 322 324 317 320 323 324 325 326 326 327
295 296 298 298 299 299 298 297 297 296 295 294 294 293 294 295 294 295 295 295 296 299 301 304 305 305 306 308 312 321 320 319 317 313 313 312 309 312 316 320 322 326 327
295 295 297 299 298 297 296 295 294 294 293 292 292 292 292 293 293 293 293 292 293 295 297 302 302 303 303 305 309 315 311 305 304 304 303 303 303 304 306 311 313 315 318
294 294 296 298 297 296 294 293 293 292 292 291 290 290 291 291 292 291 291 290 291 292 293 296 300 299 299 302 309 307 305 304 303 303 302 301 301 300 301 305 305 307 311
294 294 294 295 296 295 294 292 292 291 290 290 289 289 289 290 290 290 289 289 290 289 290 292 295 296 295 297 306 306 305 304 303 301 299 300 299 299 298 299 299 300 304
292 292 293 294 295 295 295 294 292 290 289 289 288 288 288 289 289 289 289 289 289 288 288 290 292 294 293 294 301 302 300 301 302 298 295 296 296 298 297 295 295 295 299
291 291 291 292 292 294 293 293 292 288 287 287 288 287 287 288 288 288 288 288 288 287 286 288 290 290 291 292 297 299 303 297 297 296 296 294 293 295 295 294 293 293 293
290 290 290 290 291 292 292 292 291 290 288 287 287 287 286 286 287 287 287 286 287 286 286 286 287 289 290 291 289 293 290 293 291 294 293 292 292 294 293 292 290 291 291
289 289 290 290 290 290 291 291 290 288 287 286 285 285 285 286 286 286 286 286 286 286 285 285 286 286 286 288 289 288 287 284 286 291 291 291 292 292 290 289 288 288 290
288 289 290 290 290 289 289 287 286 285 284 285 284 284 285 285 285 286 286 285 285 285 285 285 285 286 286 285 288 289 289 287 283 283 289 290 289 290 288 287 287 287 288
288 288 289 289 289 288 287 287 285 284 284 284 284 283 284 284 284 284 285 285 285 285 285 284 284 284 284 284 284 285 286 286 286 284 281 282 288 290 289 289 288 287 287
288 288 288 288 287 288 286 286 285 284 283 283 283 283 283 283 283 284 284 284 284 284 284 284 284 283 283 283 283 282 282 282 282 282 281 282 284 287 288 289 286 287 288
Wind_Speed
5 8 15 16 17 17 17 17 17 17 17 18 17 17 17 17 17 17 17 17 19 20 20 19 17 16 15 15 15 13 14 13 12 11 11 14 13 10 9 8 8 8 8
5 9 15 17 17 17 16 16 16 17 17 16 16 16 16 16 17 17 18 19 19 18 20 20 21 20 18 16 14 13 13 14 12 10 10 11 11 11 10 10 10 8 9
8 10 11 17 16 15 15 15 16 15 15 16 16 16 17 17 17 17 18 17 18 18 19 19 20 20 20 19 17 14 15 15 15 11 10 10 10 13 12 12 12 11 10
7 9 10 15 15 15 14 15 15 16 16 16 16 17 17 17 17 17 17 17 18 18 19 20 21 21 20 19 19 19 16 13 13 14 11 10 10 13 14 15 14 12 13
10 10 10 14 15 14 14 16 16 15 15 15 15 16 17 18 18 18 18 18 18 18 18 19 19 20 21 21 19 21 19 14 11 13 14 11 10 12 17 16 13 12 12
9 9 10 13 14 14 14 16 14 14 14 14 15 16 17 18 19 18 19 19 19 19 19 20 19 20 20 20 21 20 20 16 10 12 12 11 8 12 16 16 11 10 10
7 8 8 14 15 14 14 13 14 14 14 15 16 16 17 17 17 19 19 19 19 19 20 20 20 20 22 21 22 21 19 16 12 10 11 9 9 17 16 16 13 13 12
8 9 9 13 14 13 13 14 13 14 14 15 15 17 17 17 18 18 19 18 18 18 18 19 19 20 20 21 21 20 20 15 9 9 12 8 9 11 13 12 13 13 14
7 8 9 9 9 10 9 12 12 13 14 16 16 17 17 17 18 18 18 19 20 20 20 20 19 19 20 20 21 20 20 17 13 5 3 1 5 9 11 13 15 15 16
7 7 8 7 7 6 5 11 12 14 15 15 16 17 17 17 19 19 20 20 20 21 21 19 19 18 19 21 22 22 21 17 11 4 4 4 8 8 9 14 16 14 16
8 8 8 7 7 7 5 8 10 12 13 14 14 17 13 11 14 17 19 20 21 21 21 20 19 18 15 14 15 20 19 7 7 5 4 7 3 4 11 14 16 15 16
8 8 7 7 7 7 6 7 7 8 7 9 11 13 10 11 12 14 14 20 19 18 19 19 19 19 13 7 5 10 6 8 3 0 2 12 15 10 11 15 14 18 19
4 4 7 7 6 7 6 6 5 5 6 7 13 13 11 10 10 8 6 7 9 13 7 10 9 6 10 8 7 4 7 7 4 4 7 2 8 6 9 11 12 16 18
4 4 6 6 6 8 6 7 7 7 7 8 10 14 10 7 9 10 7 9 8 8 11 9 7 10 9 10 9 9 6 4 3 3 4 6 3 4 7 9 10 13 16
3 4 6 7 7 7 9 7 8 8 8 9 10 12 10 9 9 9 9 9 9 9 10 10 10 11 12 12 10 10 9 6 6 4 4 8 9 12 15 19 17 17 19
3 4 4 7 8 8 8 10 8 7 8 9 9 11 12 9 9 10 10 10 10 10 10 8 10 10 10 10 11 10 8 8 12 16 14 14 31 31 30 27 28 25 25
2 2 4 6 7 9 9 8 7 7 8 8 8 11 13 12 11 11 9 10 11 11 13 10 11 10 10 10 13 13 16 17 14 16 14 12 14 24 27 27 27 26 27
3 4 4 5 7 9 9 8 7 8 7 8 8 9 13 13 13 10 9 10 11 10 10 10 10 10 10 10 8 10 11 13 14 14 12 11 10 10 16 28 28 28 28
3 4 5 5 6 7 8 7 8 9 8 8 8 8 12 12 13 10 9 10 12 10 11 10 10 11 11 9 8 9 9 10 11 11 14 12 14 12 11 20 25 25 28
3 4 4 4 4 4 4 5 6 7 8 7 8 9 11 10 12 10 9 11 11 10 11 11 12 11 11 9 5 7 8 10 9 11 13 12 14 13 13 14 12 13 25
4 4 3 4 3 2 2 2 3 4 5 7 7 12 12 11 12 12 9 11 11 12 12 14 10 13 13 13 5 5 4 8 10 11 11 12 14 13 15 13 10 9 11
5 4 4 4 4 3 3 2 3 2 3 4 6 9 12 12 13 11 11 11 12 10 14 15 15 8 9 13 7 4 6 4 9 9 11 13 17 12 13 15 14 14 13
5 4 4 4 4 4 4 3 4 3 2 3 7 7 10 11 12 12 12 11 12 11 10 12 12 13 8 9 15 6 4 5 9 5 12 14 16 12 12 16 17 16 16
7 5 5 4 5 5 6 3 5 3 2 3 4 4 7 11 12 12 11 12 12 10 12 10 10 10 9 10 4 9 10 7 4 6 7 12 10 11 13 11 13 14 17
7 6 5 6 6 5 7 6 6 8 5 3 3 5 8 9 11 11 11 11 11 8 11 12 11 12 10 9 8 6 5 6 9 5 7 10 9 7 8 10 11 11 14
7 6 6 6 6 5 7 5 6 10 7 5 5 5 6 6 7 10 10 10 9 9 10 9 10 13 10 10 8 9 7 5 6 6 5 9 10 10 6 9 12 12 12
Wind_Direction
3 350 2 359 357 355 354 355 356 357 357 353 352 350 348 348 347 347 341 339 338 331 328 327 318 280 275 276 279 278 265 246 247 264 220 206 208 192 197 201 201 212 217
20 2 4 357 353 355 353 354 356 358 353 353 351 350 348 348 346 344 341 339 333 332 325 325 325 328 299 272 272 277 276 253 236 238 220 214 206 196 193 200 211 220 228
23 3 357 358 355 356 357 358 359 352 354 355 350 351 350 349 345 343 339 337 334 330 326 323 318 316 321 323 281 265 265 270 243 226 219 214 212 208 195 199 208 224 238
19 8 355 2 360 3 2 6 358 358 359 356 353 352 352 349 349 344 341 340 334 331 328 327 320 325 320 332 330 281 265 266 239 225 216 211 209 212 212 201 213 227 220
23 12 353 2 4 5 7 6 2 358 1 359 356 356 355 354 354 350 346 344 340 336 331 327 324 320 318 317 320 318 281 264 242 229 223 212 207 209 214 210 220 218 219
23 11 359 8 6 12 8 5 358 356 0 355 355 355 354 355 354 350 349 348 345 337 331 327 324 320 318 312 311 312 313 265 251 235 209 197 199 213 222 219 204 197 193
20 13 7 11 11 12 14 5 5 5 2 0 358 356 358 357 355 352 353 352 346 342 339 332 330 328 321 313 307 311 307 292 249 216 201 201 203 224 227 233 222 213 213
28 15 13 7 5 11 7 5 4 7 9 6 10 10 6 6 3 1 359 353 348 346 343 338 331 324 318 308 301 307 314 310 265 228 206 196 207 224 247 247 255 256 249
32 22 13 4 0 359 352 10 12 18 20 18 14 11 8 8 8 2 0 354 356 353 348 344 339 330 322 316 307 298 304 308 302 209 205 215 266 251 268 274 271 266 271
30 23 11 8 2 349 353 13 21 18 20 20 14 10 10 9 3 360 0 356 354 355 353 348 347 344 336 328 320 308 296 287 273 201 165 247 191 261 278 277 275 280 282
25 16 8 1 359 0 17 18 19 26 24 19 12 10 13 12 0 1 351 347 353 350 344 342 338 336 332 326 327 319 310 277 238 195 172 170 132 279 292 302 286 282 277
14 4 3 357 5 10 26 22 21 25 19 17 14 14 15 7 357 346 330 347 347 340 334 340 337 338 336 330 328 321 322 321 295 354 198 189 175 195 229 271 302 306 300
352 359 359 2 13 23 29 26 21 23 18 18 19 16 7 5 357 341 340 352 348 343 342 338 330 339 338 329 323 338 353 11 19 23 23 252 267 229 238 243 284 295 300
8 357 2 13 25 28 36 38 31 27 22 26 22 16 8 3 355 354 357 355 351 343 342 348 346 353 351 341 332 355 34 39 56 59 47 55 16 282 283 283 270 285 298
17 6 15 25 31 34 43 39 37 31 28 27 22 14 9 6 359 357 1 359 358 353 356 354 355 358 1 359 6 22 24 40 52 35 8 2 336 340 331 320 308 300 290
26 26 24 41 41 44 44 43 36 33 29 33 27 16 12 13 7 10 5 4 4 357 356 356 358 3 4 1 10 24 44 41 29 32 27 27 33 29 21 12 2 344 302
51 36 40 67 49 54 52 47 42 39 37 35 26 20 16 19 12 14 12 8 2 2 357 1 8 12 14 13 12 33 53 61 47 45 44 33 26 26 18 12 9 7 351
101 73 65 66 66 61 60 54 48 37 39 35 28 22 19 19 18 21 20 12 4 12 11 6 7 12 12 14 35 53 52 64 58 50 48 43 31 20 12 10 7 5 0
116 105 87 78 85 80 71 66 55 43 39 31 32 26 21 22 22 26 25 18 12 20 22 13 16 17 14 4 48 62 60 61 58 50 41 37 30 23 14 7 5 3 2
107 94 96 97 95 92 83 72 54 45 39 28 31 30 23 25 24 26 26 25 23 28 25 17 19 22 23 359 4 66 63 56 58 46 38 27 14 22 19 7 358 354 356
109 100 87 110 76 131 86 37 46 37 25 30 28 26 25 27 25 28 31 27 26 34 28 19 10 18 21 7 7 13 56 67 41 46 39 29 19 12 14 6 3 354 351
144 128 108 92 74 85 95 101 95 89 51 34 24 28 25 28 28 32 34 36 31 33 36 29 22 21 23 22 15 8 9 343 15 26 32 22 16 11 17 15 8 2 360
156 147 125 111 98 81 106 123 102 88 47 11 23 29 21 28 34 32 37 43 39 36 38 37 28 33 30 25 34 28 21 5 332 357 26 21 5 11 14 11 7 4 2
166 150 134 118 102 86 92 96 95 100 110 46 33 22 29 31 34 36 37 45 44 41 46 39 34 37 40 39 22 37 71 58 2 330 5 17 356 14 17 13 6 3 2
152 150 139 122 103 96 92 98 111 106 98 77 55 48 44 37 34 35 41 46 47 43 50 48 41 39 36 46 41 20 36 46 17 5 344 347 352 29 28 21 14 6 0
140 143 141 135 112 106 104 113 121 113 107 98 72 61 50 41 35 33 44 47 47 45 45 50 46 49 42 49 50 47 46 35 6 9 350 348 356 9 17 21 13 5 3